Location: Jetmore
(38.0845°N, 99.8935°W)
Time: 20:12:44
(UTC+00:00)

SL-27 R/B - Pass Details

Date: 29 October 2020
Orbit: 420 x 469 km, 74.7° (Epoch: 01 December)

Event Time Altitude Azimuth Distance (km) Brightness Sun altitude
Rises 12:34:29 0° 210° (SSW) 2,484 6.0 -6.2°
Reaches altitude 10° 12:36:38 10° 217° (SW) 1,618 5.0 -5.8°
Maximum altitude 12:40:03 43° 290° (WNW) 667 2.8 -5.2°
Drops below altitude 10° 12:43:31 10° 4° (N) 1,637 5.1 -4.5°
Sets 12:45:42 0° 11° (N) 2,517 6.2 -4.1°
